Flag for Denmark Weather past 2 weeks in Horsens, Denmark

Now
59 °F

Partly cloudy.


Feels Like: 58 °F
Forecast: 54 / 71 °F
Wind: 8 mph from West

Location: Billund Lufthavn

Current Time: Aug 5, 2015 at 1:04:40 AM

Latest Report: Aug 5, 2015 at 12:20 AM


Visibility: N/A

Pressure: 29.95 "Hg

Humidity: 94%

Dew point: 57 °F

Location of HorsensLocation

Historic Weather in Horsens — Graph

°F

Horsens temperature yesterday

Maximum temperature yesterday: 75 °F (at 3:20 PM)
Minimum temperature yesterday: 59 °F (at 11:20 PM)
Average temperature yesterday: 67 °F

Past Weeks' High & Low Weather Summary

 TemperatureHumidityPressure
High77 °F (Aug 3, 3:50 PM)100% (Jul 21, 6:50 AM)30.15 "Hg (Jul 21, 6:50 AM)
Low39 °F (Aug 1, 4:20 AM)36% (Aug 3, 5:20 PM)29.36 "Hg (Jul 28, 2:20 AM)
Average59 °F78%29.79 "Hg
* Reported Jul 20 11:20 PM — Aug 4 11:50 PM, Horsens, Weather by CustomWeather, © 2015

Note: Actual official high and low records may vary slightly from our data, if they occured in-between our weather recording intervals... More about our weather records

Advertising

Horsens weather history for previous 24 hours

 ConditionsComfort  
Time TempWeatherWind HumidityBarometerVisibility
11:50 PM
Tue, Aug 4
59 °FPassing clouds.10 mph94%29.92 "HgN/A
11:20 PM59 °FRain showers. Passing clouds.9 mph100%29.92 "HgN/A
10:50 PM61 °FDrizzle. Fog.12 mph94%29.92 "Hg2 mi
10:20 PM64 °FDrizzle. Fog.8 mph94%29.89 "Hg1 mi
9:50 PM64 °FDrizzle. Fog.6 mph94%29.89 "Hg3 mi
9:20 PM64 °FBroken clouds.5 mph94%29.89 "Hg5 mi
8:50 PM64 °FLight rain. Broken clouds.5 mph94%29.89 "HgN/A
8:20 PM64 °FSprinkles. Broken clouds.6 mph94%29.89 "HgN/A
7:50 PM64 °FSprinkles. Broken clouds.6 mph94%29.89 "Hg5 mi
7:20 PM66 °FSprinkles. Broken clouds.5 mph88%29.89 "Hg4 mi
6:50 PM66 °FBroken clouds.3 mph94%29.89 "Hg5 mi
6:20 PM66 °FBroken clouds.1 mph94%29.89 "HgN/A
5:51 PM66 °FSprinkles. Broken clouds.2 mph88%29.89 "Hg4 mi
5:20 PM66 °FSprinkles. Broken clouds.8 mph94%29.86 "HgN/A
4:50 PM68 °FSprinkles. Partly sunny.14 mph83%29.89 "HgN/A
4:20 PM73 °FPartly sunny.8 mph69%29.89 "HgN/A
3:50 PM73 °FScattered clouds.9 mph69%29.89 "HgN/A
3:20 PM75 °FPartly sunny.1 mph65%29.89 "HgN/A
2:50 PM73 °FPartly sunny.5 mph65%29.86 "HgN/A
2:20 PM73 °FScattered clouds.7 mph65%29.86 "HgN/A
1:50 PM73 °FPassing clouds.12 mph65%29.86 "HgN/A
1:20 PM72 °FPassing clouds.12 mph69%29.86 "HgN/A
12:50 PM72 °FScattered clouds.7 mph69%29.89 "HgN/A
12:20 PM72 °FScattered clouds.6 mph69%29.89 "HgN/A
11:50 AM73 °FPassing clouds.3 mph65%29.92 "HgN/A
11:20 AM72 °FPassing clouds.7 mph65%29.92 "HgN/A
10:50 AM72 °FPassing clouds.9 mph69%29.92 "HgN/A
10:20 AM73 °FPassing clouds.9 mph61%29.92 "HgN/A
9:50 AM73 °FBroken clouds.7 mph61%29.92 "HgN/A
9:20 AM73 °FScattered clouds.12 mph61%29.89 "HgN/A
8:50 AM70 °FMild.10 mph69%29.89 "HgN/A
8:20 AM68 °FPassing clouds.10 mph73%29.89 "HgN/A
7:50 AM66 °FScattered clouds.9 mph78%29.89 "HgN/A
7:20 AM66 °FMild.10 mph73%29.89 "HgN/A
6:50 AM64 °FPassing clouds.8 mph78%29.89 "HgN/A
6:20 AM63 °FMild.8 mph83%29.89 "HgN/A
5:50 AM64 °FMild.7 mph78%29.92 "HgN/A
5:20 AM64 °FPassing clouds.8 mph78%29.92 "HgN/A
4:50 AM64 °FOvercast.9 mph78%29.92 "HgN/A
4:20 AM64 °FPassing clouds.7 mph73%29.95 "HgN/A
3:50 AM64 °FPassing clouds.7 mph73%29.95 "HgN/A
3:20 AM66 °FPassing clouds.6 mph68%29.95 "HgN/A
2:50 AM66 °FPassing clouds.8 mph68%29.95 "HgN/A
2:20 AM66 °FPassing clouds.12 mph68%29.95 "HgN/A
1:50 AM64 °FPassing clouds.10 mph73%29.95 "HgN/A
1:20 AM64 °FPassing clouds.10 mph73%29.95 "HgN/A
Weather by CustomWeather, © 2015

See weather overviewHow to use our weather pages